User: anonymous   Login
Location: Chenango Forks
(42.2242°N, 75.8278°W)
Time: 23:32:18
(UTC-05:00)
Language:

Okean 3 Rocket - Orbit

View from above orbital plane
View from above orbital plane
View from above satellite
View from above satellite

Ground track
Ground track

The orbit data is extracted from the following two-line orbital elements,

1 21398U 91039B   17052.23872031  .00000081  00000-0  76751-5 0  9996
2 21398  82.5257 334.1215 0020872 198.9600 275.1797 14.79650264386767
Epoch (UTC): 21 February 2017 05:43:45
Eccentricity: 0.0020872
inclination: 82.5257°
perigee height: 616 km
apogee height: 645 km
right ascension of ascending node: 334.1215°
argument of perigee: 198.9600°
revolutions per day: 14.79650264
mean anomaly at epoch: 275.1797°
orbit number at epoch: 38676

The dashed part of the orbit path shows where the satellite is in the earth's shadow,  

DLR